Weather History for Anchorage Merrill, AK

Change the Weather History Date:

Thursday, January 5, 2012

  Actual Average Record
Temperature  
Mean Temperature 2 °F -  
Max Temperature 17 °F 19 °F 35 °F (2014)
Min Temperature -9 °F 7 °F -15 °F (2009)
Degree Days  
Heating Degree Days 62    
Moisture  
Dew Point 2 °F    
Average Humidity 83    
Maximum Humidity 92    
Minimum Humidity 79    
Precipitation  
Precipitation 0.15 in - - ()
Snow  
Snow 0.00 in - - ()
Snow Depth 11.00 in    
Sea Level Pressure  
Sea Level Pressure 29.47 in    
Wind  
Wind Speed 4 mph (East)    
Max Wind Speed 8 mph    
Max Gust Speed -    
Visibility 4 miles    
Events Fog , Snow    
Averages and records for this station are not official NWS values.
T = Trace of Precipitation, MM = Missing Value Source: NWS Daily Summary

Daily Weather History Graph

Daily Weather History Graph

Search for Another Location

Airport:

Trip Planner

Search our weather history database for the weather conditions in past years. The results will help you decide how hot, cold, wet, or windy it might be!

Date:

Astronomy

Jan. 05, 2012 Rise Set
Actual Time 10:10 AM AKST 3:59 PM AKST
Civil Twilight 9:10 AM AKST 4:59 PM AKST
Nautical Twilight 8:12 AM AKST 5:57 PM AKST
Astronomical Twilight 7:19 AM AKST 6:50 PM AKST
Moon 1:06 PM AKST (1/5) 7:07 AM AKST (1/5)
Length of Visible Light 7h 48m
Length of Day
5h 48m
Waxing Gibbous, 88% of the Moon is Illuminated
Jan 5
Waxing Gibbous
Jan 8
Full
Jan 16
Last Quarter
Jan 22
New
Jan 30
First Quarter

Hourly Weather History & Observations

Time (AKST) Temp. Windchill Dew Point Humidity Pressure Visibility Wind Dir Wind Speed Gust Speed Precip Events Conditions
12:53 AM -0.9 °F -11.0 °F -5.1 °F 83% 29.50 in 7.0 mi NNE 4.6 mph - 0.00 in Snow Light Snow
1:53 AM -4.0 °F - -9.0 °F 79% 29.51 in 10.0 mi Calm Calm - 0.00 in Snow Light Snow
2:53 AM -9.0 °F - -13.0 °F 83% 29.49 in 10.0 mi Calm Calm - 0.00 in Snow Light Snow
3:35 AM -5.8 °F - -9.4 °F 84% 29.47 in 10.0 mi Calm Calm - 0.00 in Snow Light Snow
3:53 AM -2.9 °F -13.3 °F -7.1 °F 82% 29.47 in 10.0 mi North 4.6 mph - 0.00 in Snow Light Snow
4:44 AM -2.2 °F -12.5 °F -5.8 °F 85% 29.41 in 10.0 mi North 4.6 mph - 0.00 in   Overcast
4:53 AM -2.0 °F -15.4 °F -6.0 °F 83% 29.41 in 10.0 mi North 6.9 mph - 0.00 in   Overcast
5:53 AM -0.9 °F -14.1 °F -5.1 °F 83% 29.42 in 10.0 mi North 6.9 mph - 0.00 in Snow Light Snow
6:53 AM 1.0 °F -6.7 °F -4.0 °F 79% 29.46 in 10.0 mi East 3.5 mph - 0.00 in   Overcast
7:53 AM 1.0 °F -12.9 °F -4.0 °F 79% 29.45 in 10.0 mi East 8.1 mph - N/A   Overcast
8:03 AM 1.4 °F -9.9 °F -2.2 °F 85% 29.43 in 3.0 mi ENE 5.8 mph - N/A   Overcast
8:05 AM 1.4 °F -9.9 °F -2.2 °F 85% 29.43 in 1.0 mi NE 5.8 mph - 0.00 in Snow Light Snow
8:12 AM 1.4 °F -8.3 °F -2.2 °F 85% 29.43 in 0.5 mi NE 4.6 mph - 0.00 in Snow Snow
8:39 AM 3.2 °F -7.8 °F -0.4 °F 85% 29.43 in 1.0 mi NE 5.8 mph - 0.01 in Snow Light Snow
8:53 AM 3.0 °F -4.4 °F -0.9 °F 84% 29.44 in 1.0 mi NE 3.5 mph - 0.01 in Snow Light Snow
9:00 AM 3.2 °F -7.8 °F -0.4 °F 85% 29.42 in 1.0 mi NE 5.8 mph - 0.00 in Snow Light Snow
9:28 AM 3.2 °F -10.3 °F -0.4 °F 85% 29.41 in 6.0 mi NNE 8.1 mph - 0.00 in Snow Light Snow
9:53 AM 3.9 °F - -0.0 °F 84% 29.42 in 10.0 mi Calm Calm - 0.00 in   Overcast
11:53 AM 6.1 °F -2.8 °F 1.9 °F 83% 29.41 in 7.0 mi NNW 4.6 mph - N/A   Overcast
12:53 PM 7.0 °F - 3.9 °F 87% 29.43 in 4.0 mi Calm Calm - 0.00 in Snow Light Snow
1:53 PM 7.0 °F -3.3 °F 1.9 °F 80% 29.41 in 10.0 mi NNE 5.8 mph - 0.00 in   Overcast
2:53 PM 8.1 °F - 3.0 °F 80% 29.42 in 10.0 mi Calm Calm - N/A   Overcast
3:38 PM 8.6 °F 0.1 °F 3.2 °F 79% 29.45 in 3.0 mi South 4.6 mph - 0.00 in Snow Light Snow
3:40 PM 8.6 °F - 3.2 °F 79% 29.45 in 1.8 mi Calm Calm - 0.00 in Snow Light Snow
3:49 PM 8.6 °F 0.1 °F 3.2 °F 79% 29.45 in 1.5 mi SSW 4.6 mph - 0.00 in Snow Light Snow
3:53 PM 9.0 °F 0.6 °F 3.9 °F 80% 29.46 in 1.5 mi SSW 4.6 mph - 0.01 in Snow Light Snow
4:27 PM 8.6 °F 2.0 °F 5.0 °F 85% 29.47 in 0.5 mi South 3.5 mph - 0.00 in Fog , Snow Snow
4:53 PM 10.9 °F 4.7 °F 7.0 °F 84% 29.50 in 0.5 mi SSE 3.5 mph - 0.02 in Fog , Snow Snow
5:53 PM 12.0 °F 4.1 °F 8.1 °F 84% 29.51 in 0.5 mi South 4.6 mph - 0.01 in Fog , Snow Snow
6:00 PM 12.2 °F - 8.6 °F 85% 29.50 in 0.5 mi Calm Calm - 0.01 in Fog , Snow Snow
6:13 PM 12.2 °F 4.3 °F 8.6 °F 85% 29.51 in 0.5 mi South 4.6 mph - 0.01 in Fog , Snow Light Snow
6:53 PM 12.0 °F 4.1 °F 8.1 °F 84% 29.53 in 0.5 mi SE 4.6 mph - 0.01 in Fog , Snow Light Snow
6:58 PM 12.2 °F 4.3 °F 8.6 °F 85% 29.52 in 4.0 mi SE 4.6 mph - 0.00 in Snow Light Snow
7:53 PM 12.0 °F 4.1 °F 8.1 °F 84% 29.53 in 1.5 mi South 4.6 mph - 0.00 in Snow Light Snow
8:02 PM 12.2 °F 4.3 °F 8.6 °F 85% 29.52 in 2.5 mi South 4.6 mph - 0.01 in Snow Light Snow
8:53 PM 12.9 °F 5.2 °F 8.1 °F 81% 29.53 in 2.5 mi SSW 4.6 mph - 0.01 in Snow Light Snow
9:53 PM 14.0 °F - 10.0 °F 84% 29.52 in 2.5 mi Calm Calm - 0.00 in Snow Light Snow
10:26 PM 12.2 °F - 10.4 °F 92% 29.51 in 2.0 mi Calm Calm - 0.02 in Snow Light Snow
10:53 PM 14.0 °F - 10.0 °F 84% 29.52 in 2.0 mi Calm Calm - 0.05 in Snow Light Snow
11:53 PM 17.1 °F 7.6 °F 12.9 °F 84% 29.52 in 2.0 mi South 6.9 mph - 0.03 in Snow Light Snow